Location: Burland Observatory
(39.4088°N, 105.4217°W)
Time: 17:31:27
(UTC-07:00)

deb Explorer IX - Visible Passes

Search period start: 05 December 2019 00:00
Search period end: 15 December 2019 00:00
Orbit: 545 x 1105 km, 38.8° (Epoch: 05 December)

Date Brightness Start Highest point End Pass type
(mag) Time Alt. Az. Time Alt. Az. Time Alt. Az.
05 Dec ? 17:53:04 10° SW 17:59:15 49° SSE 18:03:44 22° E visible
05 Dec ? 19:39:37 10° W 19:45:06 60° WSW 19:45:06 60° WSW visible
06 Dec ? 17:31:03 10° SW 17:37:06 49° SSE 17:42:51 15° E visible
06 Dec ? 19:17:34 10° W 19:24:13 83° SSW 19:24:13 83° SSW visible
06 Dec ? 21:04:50 10° W 21:05:35 14° W 21:05:35 14° W visible
07 Dec ? 17:09:03 10° SW 17:14:58 50° SSE 17:21:40 10° E visible
07 Dec ? 18:55:32 10° W 19:02:11 83° S 19:03:20 65° E visible
07 Dec ? 20:42:44 10° W 20:44:41 21° W 20:44:41 21° W visible
08 Dec ? 18:33:31 10° W 18:40:01 84° S 18:42:26 45° E visible
08 Dec ? 20:20:39 10° W 20:23:48 30° W 20:23:48 30° W visible
09 Dec ? 18:11:31 10° W 18:17:51 84° S 18:21:32 31° E visible
09 Dec ? 19:58:35 10° W 20:02:55 43° W 20:02:55 43° W visible
10 Dec ? 17:49:31 10° W 17:55:42 84° S 18:00:41 21° E visible
10 Dec ? 19:36:32 10° W 19:42:03 63° WSW 19:42:03 63° WSW visible
11 Dec ? 17:27:32 10° W 17:33:34 84° S 17:39:51 13° E visible
11 Dec ? 19:14:29 10° W 19:21:01 76° SSW 19:21:13 75° S visible
11 Dec ? 21:01:49 10° W 21:02:36 14° W 21:02:36 14° W visible
12 Dec ? 17:05:34 10° W 17:11:25 84° S 17:18:14 10° E visible
12 Dec ? 18:52:28 10° W 18:58:50 75° SSW 19:00:27 54° SE visible
12 Dec ? 20:39:44 10° W 20:41:50 20° W 20:41:50 20° W visible
13 Dec ? 18:30:28 10° W 18:36:40 74° SSW 18:39:47 35° ESE visible
13 Dec ? 20:17:41 10° W 20:21:10 28° WSW 20:21:10 28° WSW visible
14 Dec ? 18:08:28 10° W 18:14:30 73° SSW 18:19:13 21° ESE visible
14 Dec ? 19:55:39 10° W 20:00:36 35° SW 20:00:36 35° SW visible
